Home > Weather > Wittenberge > Past weeks

Flag for Germany Past Weather in Wittenberge, Mecklenburg-Western Pomerania, Germany — Yesterday and Last 2 Weeks

Now
66 °F

Sunny.


Feels Like: 66 °F
Forecast: 64 / 91 °F
Wind: 7 mph from East

Location: Mecklenburg-Vorpommern - Parchim

Current Time: Aug 25, 2016 at 8:26:23 AM

Latest Report: Aug 25, 2016 at 7:50 AM


Visibility: 10 mi

Pressure: 30.18 "Hg

Humidity: 78%

Dew Point: 59 °F

Location of WittenbergeLocation

Past Weather in Wittenberge — Graph

°F

Wittenberge Temperature Yesterday

Maximum temperature yesterday: 84 °F (at 3:50 PM)
Minimum temperature yesterday: 59 °F (at 6:20 AM)
Average temperature yesterday: 75 °F

High & Low Weather Summary for the Past Weeks

 TemperatureHumidityPressure
High84 °F (Aug 24, 3:50 PM)100% (Aug 11, 6:20 AM)30.30 "Hg (Aug 11, 6:20 AM)
Low39 °F (Aug 17, 6:20 AM)39% (Aug 19, 4:50 PM)29.83 "Hg (Aug 18, 6:20 AM)
Average64 °F73%30.08 "Hg
* Reported Aug 10 6:20 AM — Aug 25 6:50 AM, Wittenberge, Weather by CustomWeather, © 2016

Note: Actual official high and low records may vary slightly from our data, if they occured in-between our weather recording intervals... More about our weather records

Advertising

Wittenberge Weather History for the Previous 24 Hours

Scroll right to see more
 ConditionsComfort  
Time TempWeatherWind HumidityBarometerVisibility
6:50 AM
Thu, Aug 25
63 °FClear.6 mph83%30.18 "Hg10 mi
6:20 AM61 °FClear.7 mph88%30.18 "Hg10 mi
6:50 PM
Wed, Aug 24
82 °FPassing clouds.9 mph42%30.21 "HgN/A
6:20 PM82 °FSunny.10 mph45%30.21 "Hg10 mi
5:50 PM82 °FPassing clouds.10 mph45%30.21 "HgN/A
5:20 PM82 °FSunny.10 mph45%30.24 "Hg10 mi
4:50 PM84 °FPassing clouds.8 mph45%30.24 "HgN/A
4:20 PM82 °FPassing clouds.9 mph45%30.24 "HgN/A
3:50 PM84 °FPassing clouds.9 mph48%30.24 "HgN/A
3:20 PM82 °FPassing clouds.10 mph48%30.24 "HgN/A
2:50 PM81 °FPassing clouds.7 mph51%30.24 "HgN/A
2:20 PM81 °FPassing clouds.7 mph51%30.27 "HgN/A
1:50 PM81 °FPassing clouds.8 mph48%30.27 "HgN/A
1:20 PM79 °FSunny.9 mph54%30.27 "Hg10 mi
12:50 PM79 °FPassing clouds.7 mph54%30.27 "HgN/A
12:20 PM77 °FPassing clouds.8 mph57%30.30 "HgN/A
11:50 AM77 °FPassing clouds.6 mph57%30.30 "HgN/A
11:20 AM75 °FPassing clouds.8 mph65%30.30 "HgN/A
10:50 AM73 °FSunny.3 mph69%30.30 "Hg10 mi
10:20 AM73 °FSunny.3 mph69%30.30 "Hg10 mi
9:50 AM72 °FPassing clouds.3 mph73%30.30 "HgN/A
9:20 AM68 °FSunny.2 mph83%30.30 "Hg10 mi
8:50 AM66 °FSunny.3 mph88%30.30 "Hg10 mi
8:20 AM63 °FSunny.5 mph94%30.30 "Hg10 mi
Weather by CustomWeather, © 2016

See weather overviewHow to use our weather pages